星链-2038 (STARLINK-2038 )

导读

STARLINK-2038是美国太空探索技术公司(SpaceX)发射的星链(Starlink)卫星,于2021年2月16日在美国发射升空。它属于星链星座一期组网卫星,运行在距地面约550公里的近地轨道,单颗重量约260千克,旨在为全球提供低延迟高速互联网接入服务,是星链庞大星座组网中的一员,助力SpaceX构建全球卫星互联网覆盖网络。

基本信息
目录编号:
47654
目录名称:
STARLINK-2038
国际标识:
2021-012AL
轨道中心:
EARTH
卫星名称:
星链-2038
卫星全名:
星链-2038 (STARLINK-2038 )
卫星状态:
已陨落 最后检测时间 2025-07-30
发射日期:
2021-02-16 UTC
国别 :
美国 (US)
星等 :
--
该卫星已列入 空间交会检测服务 Space Conjunction Data Service (SCDS) ,当前飞行风险评估等级: 无高风险
轨道信息
数据来源 国际轨道数据
星历时间: 2025-07-30T23:39:50+0800
轨道信息已过期407天
半长轴: 6528.954km
偏心率: 0.000544
轨道倾角: 53.030°
近地点辐角 334.321°
升交点赤经 261.488°
平近点角 165.680°
近地点: 147.267km
远地点: 154.371km
周期: 87.503分钟
每日圈数: 16.456498
详细信息
固有亮度:
5
最大亮度:
2.5
卫星平台:
Starlink V1.0
覆盖范围:
全球
运营商:
太空探索技术公司
运营商所在国:
美国
制造商(研发单位):
太空探索技术公司
制造商所在国:
美国
使用方式:
暂无
卫星简介
星链(Starlink)计划是由太空探索技术公司(SpaceX)提出的一个巨型低轨卫星互联网星座项目,计划在2019年至2024年间在太空搭建由约1.2万颗卫星组成的“星链”网络,其中1584颗将部署在地球上空550千米处的近地轨道,并从2020年开始工作。该卫星仍在工作。
与全量物体交会距离演化趋势
与全量物体交会风险概率演化趋势